This demonstration page uses our WeatherBlox Daily Observations layout. Learn more.

Hourly Observations for January 24, 2016

Temp ( °F °C ) Dew Point ( °F °C ) Humidity (%) Winds ( mph kmh ) Pressure ( in mb ) Visibility ( mi km ) Precip ( " mm )
12:15 am 00:15 Clear 27 -3 25 -4 93 93 SSW 3 6 29.97 1015 7 11.26538 0 0
12:35 am 00:35 Clear 27 -3 25 -4 93 93 SSW 3 6 29.94 1014 7 11.26538 0 0
12:55 am 00:55 Clear 27 -2.6 26 -3.6 93 93 SSW 5 7 29.94 1014 10 16.0934 0 0
1:15 am 01:15 Clear 28 -2.2 26 -3.5 91 91 SSW 3 6 29.91 1013 10 16.0934 0 0
1:35 am 01:35 Clear 28 -2.5 26 -3.6 92 92 Calm 29.88 1012 10 16.0934 0 0
1:55 am 01:55 Clear 26 -3.3 24 -4.4 92 92 Calm 29.91 1013 7 11.26538 0 0
2:15 am 02:15 Clear 27 -3 25 -3.9 94 94 Calm 29.91 1013 7 11.26538 0 0
2:35 am 02:35 Clear 26 -3.6 24 -4.6 93 93 Calm 29.91 1013 7 11.26538 0 0
2:55 am 02:55 Clear 25 -4.1 23 -5.1 93 93 Calm 29.91 1013 7 11.26538 0 0
3:15 am 03:15 Clear 26 -3.5 24 -4.2 95 95 Calm 29.91 1013 7 11.26538 0 0
3:35 am 03:35 Clear 25 -3.9 23 -4.8 94 94 Calm 29.91 1013 7 11.26538 0 0
3:55 am 03:55 Clear 25 -4.1 23 -5 94 94 Calm 29.91 1013 7 11.26538 0 0
4:15 am 04:15 Clear 24 -4.4 23 -5.1 95 95 Calm 29.91 1013 7 11.26538 0 0
4:35 am 04:35 Clear 25 -4.1 23 -5 94 94 Calm 29.91 1013 7 11.26538 0 0
4:55 am 04:55 Clear 26 -3.6 24 -4.3 95 95 NNW 3 6 29.91 1013 7 11.26538 0 0
5:15 am 05:15 Clear 26 -3.4 24 -4.4 93 93 Calm 29.88 1012 7 11.26538 0 0
5:35 am 05:35 Clear 25 -3.8 23 -4.8 93 93 Calm 29.91 1013 7 11.26538 0 0
5:55 am 05:55 Clear 25 -4 23 -5 93 93 Calm 29.88 1012 7 11.26538 0 0
6:15 am 06:15 Clear 26 -3.3 24 -4.4 92 92 Calm 29.88 1012 7 11.26538 0 0
6:35 am 06:35 Clear 26 -3.1 24 -4.3 92 92 Calm 29.88 1012 7 11.26538 0 0
6:55 am 06:55 Clear 26 -3.6 24 -4.7 92 92 Calm 29.88 1012 7 11.26538 0 0
7:15 am 07:15 Clear 26 -3.2 24 -4.3 92 92 Calm 29.88 1012 7 11.26538 0 0
7:35 am 07:35 Clear 25 -4 23 -5.1 92 92 Calm 29.88 1012 7 11.26538 0 0
7:55 am 07:55 Sunny 26 -3.4 24 -4.5 92 92 Calm 29.88 1012 7 11.26538 0 0
8:15 am 08:15 Sunny 27 -2.9 25 -4 92 92 Calm 29.88 1012 7 11.26538 0 0
8:35 am 08:35 Sunny 28 -2.5 26 -3.6 92 92 ENE 3 6 29.85 1011 7 11.26538 0 0
8:55 am 08:55 Sunny 26 -3.3 24 -4.5 92 92 Calm 29.88 1012 7 11.26538 0 0
9:15 am 09:15 Sunny 26 -3.1 24 -4.2 92 92 Calm 29.88 1012 7 11.26538 0 0
9:35 am 09:35 Sunny with Mist and Fog 28 -2.5 26 -3.6 92 92 Calm 29.85 1011 5 8.0467 0 0
9:55 am 09:55 Sunny 28 -2.1 26 -3.5 90 90 Calm 29.85 1011 7 11.26538 0 0
10:15 am 10:15 Sunny 30 -1.3 27 -2.8 90 90 Calm 29.85 1011 7 11.26538 0 0
10:35 am 10:35 Sunny 30 -1.1 27 -3 87 87 Calm 29.85 1011 7 11.26538 0 0
10:55 am 10:55 Sunny 31 -0.7 27 -2.7 87 87 SSE 3 6 29.83 1010 7 11.26538 0 0
11:15 am 11:15 Sunny 31 -0.6 27 -2.6 87 87 Calm 29.83 1010 7 11.26538 0 0
11:35 am 11:35 Sunny 32 0 28 -2.2 85 85 Calm 29.77 1008 10 16.0934 0 0
11:55 am 11:55 Sunny 33 0.7 29 -1.8 84 84 Calm 29.77 1008 10 16.0934 0 0
12:15 pm 12:15 Sunny 35 1.5 29 -1.5 81 81 Calm 29.77 1008 10 16.0934 0 0
12:35 pm 12:35 Sunny 35 1.6 30 -1.3 81 81 Calm 29.74 1007 10 16.0934 0 0
12:55 pm 12:55 Sunny 35 1.8 29 -1.5 79 79 Calm 29.74 1007 10 16.0934 0 0
1:15 pm 13:15 Sunny 37 2.5 30 -1 78 78 NNE 6 9 29.68 1005 10 16.0934 0 0
1:35 pm 13:35 Sunny 38 3.1 31 -0.4 78 78 ENE 3 6 29.68 1005 10 16.0934 0 0
1:55 pm 13:55 Sunny 39 3.8 31 -0.3 75 75 Calm 29.68 1005 10 16.0934 0 0
2:15 pm 14:15 Sunny 39 3.7 31 -0.7 73 73 Calm 29.68 1005 10 16.0934 0 0
2:35 pm 14:35 Sunny 38 3.6 31 -0.3 76 76 E 3 6 29.68 1005 10 16.0934 0 0
2:55 pm 14:55 Sunny 38 3.5 32 -0.1 78 78 ENE 6 9 29.65 1004 10 16.0934 0 0
3:15 pm 15:15 Sunny 39 4.1 32 0.1 75 75 E 7 11 29.65 1004 10 16.0934 0 0
3:35 pm 15:35 Sunny 40 4.5 33 0.5 76 76 E 5 7 29.65 1004 10 16.0934 0 0
3:55 pm 15:55 Sunny 39 4 32 0.2 77 77 E 7 11 29.65 1004 10 16.0934 0 0
4:15 pm 16:15 Sunny 38 3.1 32 0 80 80 E 8 13 29.65 1004 10 16.0934 0 0
4:35 pm 16:35 Sunny 37 2.5 32 0 84 84 E 8 13 29.65 1004 10 16.0934 0 0
4:55 pm 16:55 Sunny 35 1.9 32 -0.1 87 87 E 7 11 29.68 1005 7 11.26538 0 0
5:15 pm 17:15 Sunny 35 1.7 32 -0.1 88 88 ESE 8 13 29.68 1005 7 11.26538 0 0
5:35 pm 17:35 Sunny 34 1.3 31 -0.4 89 89 E 9 15 29.68 1005 7 11.26538 0 0
5:55 pm 17:55 Clear 33 0.5 31 -0.7 92 92 ESE 8 13 29.71 1006 7 11.26538 0 0
6:15 pm 18:15 Clear with Mist and Fog 32 0 30 -1 93 93 E 8 13 29.71 1006 5 8.0467 0 0
6:35 pm 18:35 Clear with Mist and Fog 31 -0.5 29 -1.5 93 93 ESE 5 7 29.71 1006 5 8.0467 0 0
6:55 pm 18:55 Clear with Mist and Fog 30 -0.9 29 -1.9 93 93 ESE 5 7 29.74 1007 5 8.0467 0 0
7:15 pm 19:15 Clear with Mist and Fog 30 -1 28 -2 93 93 ESE 5 7 29.74 1007 5 8.0467 0 0
7:35 pm 19:35 Clear with Mist and Fog 29 -1.6 28 -2.5 94 94 E 5 7 29.74 1007 4 6.43736 0 0
7:55 pm 19:55 Partly Cloudy with Mist and Fog 28 -2 27 -2.7 95 95 Calm 29.77 1008 4 6.43736 0 0
8:15 pm 20:15 Cloudy with Mist and Fog 30 -1.2 28 -2.1 94 94 ESE 3 6 29.74 1007 5 8.0467 0 0
8:35 pm 20:35 Cloudy with Mist and Fog 30 -1.1 28 -2 94 94 SSE 3 6 29.77 1008 4 6.43736 0 0
8:55 pm 20:55 Cloudy with Mist and Fog 30 -1 28 -2 93 93 Calm 29.77 1008 4 6.43736 0 0
9:15 pm 21:15 Cloudy with Mist and Fog 30 -1.1 28 -2 94 94 Calm 29.77 1008 4 6.43736 0 0
9:35 pm 21:35 Cloudy with Mist and Fog 30 -1.1 28 -2 94 94 Calm 29.77 1008 4 6.43736 0 0
9:55 pm 21:55 Cloudy with Mist and Fog 30 -1 28 -2 93 93 Calm 29.77 1008 4 6.43736 0 0
10:15 pm 22:15 Cloudy with Mist and Fog 31 -0.8 29 -1.8 93 93 Calm 29.77 1008 4 6.43736 0 0
10:35 pm 22:35 Cloudy with Mist and Fog 31 -0.8 29 -1.7 94 94 Calm 29.77 1008 4 6.43736 0 0
10:55 pm 22:55 Cloudy with Mist and Fog 31 -0.7 29 -1.7 93 93 Calm 29.77 1008 4 6.43736 0 0
11:15 pm 23:15 Cloudy with Mist and Fog 31 -0.7 29 -1.7 93 93 NNW 6 9 29.77 1008 4 6.43736 0 0
11:35 pm 23:35 Cloudy with Mist and Fog 31 -0.7 29 -1.7 93 93 N 5 7 29.77 1008 4 6.43736 0 0
11:55 pm 23:55 Cloudy with Mist and Fog 31 -0.6 29 -1.5 94 94 N 3 6 29.77 1008 4 6.43736 0 0

Powered by AerisWeather